Location: *
(43.0833°N, 13.0500°E)
Time: 18:24:11
(UTC+00:00)

Cosmos 1656 - Pass Details

Date: 15 November 2019
Orbit: 800 x 847 km, 71.1° (Epoch: 10 December)

Event Time Altitude Azimuth Distance (km) Brightness Sun altitude
Rises 16:17:35 0° 181° (S) 3,356 7.1 -6.4°
Reaches altitude 10° 16:20:08 10° 174° (S) 2,420 6.3 -6.9°
Maximum altitude 16:25:16 40° 106° (ESE) 1,186 4.1 -7.8°
Drops below altitude 10° 16:30:23 10° 38° (NE) 2,406 5.6 -8.7°
Enters shadow 16:32:01 - 34° (NNE) 3,004 6.1 -9.0°
